Location: *
(40.9167°N, 9.5000°E)
Time: 07:59:39
(UTC+00:00)

Cosmos 962 Rocket - Pass Details

Date: 09 April 2020
Orbit: 951 x 999 km, 82.9° (Epoch: 03 June)

Event Time Altitude Azimuth Distance (km) Brightness Sun altitude
Rises 19:21:02 0° 355° (N) 3,649 8.0 -16.1°
Reaches altitude 10° 19:23:35 10° 358° (N) 2,694 7.2 -16.5°
Maximum altitude 19:29:42 68° 81° (E) 1,019 4.4 -17.5°
Enters shadow 19:34:14 19° 161° (SSE) 2,105 5.8 -18.3°
